Weather History for Elkins, WV

Change the Weather History Date:

Wednesday, October 5, 2011

  Actual Average Record
Temperature  
Mean Temperature 56 °F 55 °F  
Max Temperature 68 °F 67 °F 86 °F (1941)
Min Temperature 43 °F 42 °F 26 °F (1935)
Degree Days  
Heating Degree Days 9 10  
Month to date heating degree days 94 48  
Since 1 July heating degree days 193 208  
Cooling Degree Days 0 0  
Month to date cooling degree days 0 0  
Year to date cooling degree days 699 471  
Growing Degree Days 5 (Base 50)    
Moisture  
Dew Point 47 °F    
Average Humidity 74    
Maximum Humidity 100    
Minimum Humidity 48    
Precipitation  
Precipitation 0.00 in 0.09 in 2.44 in (1972)
Month to date precipitation 1.27 0.45  
Year to date precipitation 41.36 36.89  
Snow  
Snow 0.00 in - - ()
Month to date snowfall 0.0  
Since 1 September snowfall 0.0  
Snow Depth 0.00 in    
Sea Level Pressure  
Sea Level Pressure 30.34 in    
Wind  
Wind Speed 2 mph (NW)    
Max Wind Speed 10 mph    
Max Gust Speed 14 mph    
Visibility 6 miles    
Events Fog    
T = Trace of Precipitation, MM = Missing Value Source: NWS Daily Summary

Daily Weather History Graph

Daily Weather History Graph

Search for Another Location

Airport:

Trip Planner

Search our weather history database for the weather conditions in past years. The results will help you decide how hot, cold, wet, or windy it might be!

Date:

Astronomy

Oct. 05, 2011 Rise Set
Actual Time 7:18 AM EDT 6:56 PM EDT
Civil Twilight 6:52 AM EDT 7:22 PM EDT
Nautical Twilight 6:21 AM EDT 7:53 PM EDT
Astronomical Twilight 5:50 AM EDT 8:24 PM EDT
Moon 3:32 PM EDT (10/5) 1:06 AM EDT (10/5)
Length of Visible Light 12h 30m
Length of Day
11h 37m
Waxing Gibbous, 66% of the Moon is Illuminated
Oct 5
Waxing Gibbous
Oct 11
Full
Oct 19
Last Quarter
Oct 26
New
Nov 2
First Quarter

Hourly Weather History & Observations

Time (EDT) Temp. Dew Point Humidity Pressure Visibility Wind Dir Wind Speed Gust Speed Precip Events Conditions
12:10 AM 51.8 °F 48.2 °F 88% 30.30 in 6.0 mi Calm Calm - N/A   Overcast
12:46 AM 51.8 °F 50.0 °F 94% 30.30 in 5.0 mi Calm Calm - N/A   Overcast
12:51 AM 51.1 °F 50.0 °F 96% 30.33 in 5.0 mi Calm Calm - N/A   Overcast
1:32 AM 50.0 °F 48.2 °F 94% 30.30 in 3.0 mi Calm Calm - N/A   Overcast
1:51 AM 50.0 °F 48.9 °F 96% 30.33 in 3.0 mi Calm Calm - N/A   Overcast
2:06 AM 50.0 °F 48.2 °F 94% 30.31 in 4.0 mi Calm Calm - N/A   Overcast
2:51 AM 50.0 °F 48.9 °F 96% 30.33 in 4.0 mi Calm Calm - N/A   Overcast
3:25 AM 50.0 °F 48.2 °F 94% 30.30 in 5.0 mi Calm Calm - N/A   Overcast
3:51 AM 50.0 °F 48.9 °F 96% 30.33 in 7.0 mi Calm Calm - N/A   Overcast
4:51 AM 50.0 °F 48.9 °F 96% 30.33 in 6.0 mi Calm Calm - N/A   Overcast
5:11 AM 48.2 °F 48.2 °F 100% 30.31 in 6.0 mi Calm Calm - N/A   Overcast
5:33 AM 48.2 °F 48.2 °F 100% 30.31 in 3.0 mi Calm Calm - N/A   Overcast
5:42 AM 48.2 °F 48.2 °F 100% 30.31 in 4.0 mi Calm Calm - N/A   Overcast
5:51 AM 48.9 °F 48.0 °F 97% 30.34 in 5.0 mi Calm Calm - N/A   Overcast
6:51 AM 48.9 °F 46.9 °F 93% 30.35 in 7.0 mi Calm Calm - N/A   Overcast
7:51 AM 48.9 °F 46.9 °F 93% 30.36 in 7.0 mi Calm Calm - N/A   Overcast
8:51 AM 48.9 °F 46.9 °F 93% 30.37 in 8.0 mi Calm Calm - N/A   Overcast
9:51 AM 52.0 °F 48.9 °F 89% 30.38 in 9.0 mi Calm Calm - N/A   Overcast
9:59 AM 53.6 °F 48.2 °F 82% 30.36 in 10.0 mi Calm Calm - N/A   Mostly Cloudy
10:17 AM 55.4 °F 48.2 °F 77% 30.35 in 10.0 mi Calm Calm - N/A   Mostly Cloudy
10:42 AM 55.4 °F 48.2 °F 77% 30.35 in 10.0 mi Calm Calm - N/A   Mostly Cloudy
10:51 AM 55.9 °F 48.9 °F 77% 30.38 in 10.0 mi SSE 3.5 mph - N/A   Overcast
11:51 AM 59.0 °F 48.9 °F 69% 30.36 in 10.0 mi Variable 3.5 mph - N/A   Mostly Cloudy
12:51 PM 61.0 °F 50.0 °F 67% 30.36 in 10.0 mi Calm Calm - N/A   Scattered Clouds
1:51 PM 64.0 °F 50.0 °F 60% 30.32 in 10.0 mi WNW 6.9 mph - N/A   Partly Cloudy
2:51 PM 66.9 °F 48.9 °F 52% 30.31 in 10.0 mi NW 6.9 mph - N/A   Clear
3:51 PM 66.9 °F 48.9 °F 52% 30.29 in 10.0 mi NW 5.8 mph - N/A   Clear
4:51 PM 66.9 °F 46.0 °F 47% 30.29 in 10.0 mi NW 5.8 mph - N/A   Clear
5:51 PM 64.9 °F 46.0 °F 50% 30.29 in 10.0 mi NW 5.8 mph - N/A   Clear
6:51 PM 57.0 °F 50.0 °F 77% 30.31 in 10.0 mi Calm Calm - N/A   Clear
7:51 PM 51.1 °F 48.9 °F 92% 30.33 in 10.0 mi Calm Calm - N/A   Clear
8:51 PM 48.9 °F 46.9 °F 93% 30.35 in 7.0 mi Calm Calm - N/A   Clear
9:51 PM 46.0 °F 45.0 °F 96% 30.36 in 3.0 mi Calm Calm - N/A   Clear
9:54 PM 46.4 °F 44.6 °F 93% 30.33 in 1.8 mi Calm Calm - N/A   Clear
10:03 PM 46.4 °F 44.6 °F 93% 30.33 in 3.0 mi Calm Calm - N/A   Clear
10:51 PM 44.6 °F 44.6 °F 100% 30.35 in 4.0 mi Calm Calm - N/A   Clear
10:53 PM 44.6 °F 44.6 °F 100% 30.35 in 1.5 mi Calm Calm - N/A   Clear
11:15 PM 44.6 °F 44.6 °F 100% 30.35 in 2.0 mi Calm Calm - N/A   Partly Cloudy
11:26 PM 44.6 °F 44.6 °F 100% 30.35 in 1.0 mi Calm Calm - N/A   Mist
11:32 PM 44.6 °F 42.8 °F 93% 30.35 in 0.5 mi Calm Calm - N/A Fog Fog
11:39 PM 44.6 °F 42.8 °F 93% 30.35 in 1.0 mi Calm Calm - N/A   Mist
11:42 PM 44.6 °F 42.8 °F 93% 30.35 in 3.0 mi Calm Calm - N/A   Mostly Cloudy
11:48 PM 44.6 °F 42.8 °F 93% 30.35 in 1.8 mi Calm Calm - N/A   Mostly Cloudy
11:51 PM 44.1 °F 43.0 °F 96% 30.38 in 0.8 mi Calm Calm - N/A   Overcast
11:58 PM 44.6 °F 42.8 °F 93% 30.35 in 0.2 mi Calm Calm - N/A Fog Fog